Regional Weather Roundup
Issued by NWS Charleston, SC

Current Version | Previous Version | Text Only | Print | Product List | Glossary Off
Versions: 1 2 3 4 5 6 7 8 9 10 11 12 13 14 15 16 17 18 19 20 21 22 23 24 25 26 27 28 29 30 31 32 33 34 35 36 37 38 39 40 41 42 43 44 45 46 47 48 49 50

000
ASUS42 KCHS 050612
RWRCHS

REGIONAL WEATHER ROUNDUP
NATIONAL WEATHER SERVICE CHARLESTON SC
200 AM EDT WED AUG 05 2015

NOTE: "FAIR" INDICATES FEW OR NO CLOUDS BELOW 12,000 FEET WITH NO
SIGNIFICANT WEATHER AND/OR OBSTRUCTIONS TO VISIBILITY.

NOT ALL STATIONS ARE QUALITY CONTROLLED BY THE NATIONAL
WEATHER SERVICE. USE DATA WITH CAUTION...ESPECIALLY
DEWPOINT OBSERVATIONS.

SCZ027-030-031-034>040-042>050-050700-
...SOUTHEAST SOUTH CAROLINA...

CITY           SKY/WX    TMP DP  RH WIND       PRES   REMARKS
N CHARLESTON   CLEAR     78  75  90 W8        30.01S
6HR MIN TEMP:  78; 6HR MAX TEMP:  80;

WATERFRONT PRK   N/A     82  78  88 W7        29.98S HX  91
MOUNT PLEASANT FAIR      82  79  89 SW8       30.01S HX  93
JOHNS ISLAND   FAIR      82  75  78 W7        30.01F
PINOPOLIS      NOT AVBL
MONCKS CORNER  FAIR      81  75  83 SW6       30.00S
SUMMERVILLE    FAIR      79  77  94 SW3       30.02S
BEAUFORT MCAS  CLEAR     79  72  79 W8        30.02F
6HR MIN TEMP:  79; 6HR MAX TEMP:  86;

BEAUFORT ARPT  FAIR      81  73  78 W8        30.01F
HILTON HEAD IS CLEAR     81  75  83 S7        30.04S
WALTERBORO     CLEAR     81  72  74 SW6       30.02F
ALLENDALE      FAIR      79  73  83 CALM      30.01S

...SOUTHERN MIDLANDS AND PEE DEE...

CITY           SKY/WX    TMP DP  RH WIND       PRES   REMARKS
GEORGETOWN     NOT AVBL
KINGSTREE      NOT AVBL
ORANGEBURG     CLEAR     78  74  87 SW6       30.01S
6HR MIN TEMP:  78; 6HR MAX TEMP:  90;

BARNWELL       FAIR      81  73  78 SW5       30.02S
AIKEN          FAIR      77  64  65 SW5       30.05S
MANNING        RAIN      79  75  89 SW6       30.00S
COLUMBIA       PTCLDY    84  67  56 W10       29.97F
6HR MIN TEMP:  84; 6HR MAX TEMP:  97;

SUMTER         CLEAR     82  74  76 SW8       29.97S
6HR MIN TEMP:  82; 6HR MAX TEMP:  94;

FLORENCE       CLEAR     80  76  87 SW6       29.98S
6HR MIN TEMP:  80; 6HR MAX TEMP:  91;

MYRTLE BEACH   MOCLDY    81  75  83 S9        30.01F
N MYRTLE BEACH PTCLDY    81  77  88 SW14      29.99F
6HR MIN TEMP:  80; 6HR MAX TEMP:  84;


$$

GAZ063-065-086>088-099>101-113>116-118-119-134>141-150-050700-
...SOUTHEAST GEORGIA...

CITY           SKY/WX    TMP DP  RH WIND       PRES   REMARKS
SAVANNAH ARPT  PTCLDY    78  71  79 SW6       30.04S
6HR MIN TEMP:  77; 6HR MAX TEMP:  87;

HUNTER AAF     CLEAR     77  74  91 SW5       30.01F
6HR MIN TEMP:  77; 6HR MAX TEMP:  86;

FORT STEWART   NOT AVBL
STATESBORO     PTCLDY    77  76  95 SW6       30.03F
SYLVANIA       PTCLDY    79  75  89 W3        30.04S
CLAXTON        NOT AVBL

...CSRA...CENTRAL AND FAR SOUTHEAST GEORGIA...

CITY           SKY/WX    TMP DP  RH WIND       PRES   REMARKS
THOMSON        PTCLDY    81  73  78 CALM      30.06S
AUGUSTA-BUSH   PTCLDY    78  71  79 CALM      30.00S
6HR MIN TEMP:  78; 6HR MAX TEMP:  87;

AUGUSTA-DANIEL PTCLDY    82  70  66 SW5       30.02S
SWAINSBORO     FAIR      79  79 100 SW3       30.05S
VIDALIA        CLEAR     75  72  88 SW5       30.05S
EASTMAN        MOCLDY    78  73  85 SW3       30.07S
HAZLEHURST     FAIR      78  78  99 CALM      30.04F
ALMA           CLEAR     74  72  93 S3        30.05F
6HR MIN TEMP:  74; 6HR MAX TEMP:  79;

WAYCROSS       PTCLDY    77  76  96 CALM      30.05F
JESUP          FAIR      77  73  88 S3        30.04F
BAXLEY         FAIR      77  73  88 CALM      30.04F
BRUNSWICK      PTCLDY    73  72  94 SW6       30.06S
SAINT SIMONS   PTCLDY    78  73  84 SW8       30.05F
6HR MIN TEMP:  76; 6HR MAX TEMP:  79;


$$

SCZ027-028-034-036>038-045-046-048>050-GAZ119-141-050700-
...LAKE AND SUPPLEMENTAL COASTAL OBSERVATIONS...

STATION/POSITION TIME  TEMP    WIND        PRES    WAVE   SWELL
                       AIR SEA DIR/SP/G            HT/PER HT/PER/DIR
                 (UTC) (F)     (DEG/KT/KT) (MB)    (FT/S) (FT/S/D)
UPR LAKE MARION  NOT AVBL
WINYAH BAY       NOT AVBL
LAKE MURRAY      0500   88     250/  9/ 11 1014.6S
ACE BASIN NERRS  NOT AVBL
FORT PULASKI     0500   81 85  230/  5/  7 1017.7R
SAPELO ISLAND    0500   78     230/  7     1018.0S

$$

ANZ835-935-AMZ111-154-330-350-352-354-370-450-454-472-050700-
...C-MAN AND BUOY OBSERVATIONS...

STATION/POSITION TIME  TEMP    WIND        PRES    WAVE   SWELL
                       AIR SEA DIR/SP/G            HT/PER HT/PER/DIR
                 (UTC) (F)     (DEG/KT/KT) (MB)    (FT/S) (FT/S/D)
BUOY 41004       0550   83 83  230/ 16/ 17 1015.9S   3/ 7   2/ 7
BUOY 41008       0550   81 83  230/ 10/ 10 1017.5F   2/11   2/110/11
FOLLY BEACH CMAN 0500   83     230/  8/ 11 1016.5R
CAPERS NEARSHORE 0508   84     240/ 16/ 19 1016.3R
FRIPP NEARSHORE  0500   84     260/ 14/ 17 1016.3R


STATION/POSITION TIME  TEMP    WIND        PRES    WAVE   SWELL
                       AIR SEA DIR/SP/G            HT/PER HT/PER/DIR
                 (UTC) (F)     (DEG/KT/KT) (MB)    (FT/S) (FT/S/D)
5E ST. MARYS GA  0521      81                N/A     2/ 9
FRYING PAN BUOY  0550   83 81  220/ 16/ 19 1016.1F   5/ 8   3/170/ 8
BUOY 41025       0550   81 83  230/ 19/ 23 1013.5F   6/ 6   2/150/11
CAPE LOOKOUT NC  0500   81     240/ 11/ 16 1014.5R
BUOY 41002       0550   82 81  210/ 14/ 17 1018.5    6/ 7   5/260/ 7
BUOY 41010       0520   84 85  190/ 12/ 14 1019.1F
ST AUGUSTINE FL  0600   77 77  210/  3/  4 1019.3F


$$



USA.gov is the U.S. government's official web portal to all federal, state and local government web resources and services.